Temp
15 13 12 12 12 14 13 13 13 15 16 16 15 16 15 17 18 19 20 19 21 23 24 24 24 23 23 22 22 22 23 23 22 21 21 19 19 19 19 19 19 19 20 22
13 12 13 14 14 14 13 13 13 15 16 14 14 14 16 16 17 19 19 18 21 22 23 23 23 23 23 23 22 21 21 21 22 22 21 20 19 19 19 19 19 17 18 20
12 14 16 15 15 15 14 13 14 14 16 15 16 14 14 16 17 19 19 19 19 21 21 21 22 22 22 22 22 21 21 21 21 21 20 19 19 19 18 18 18 19 19 19
13 15 15 15 14 15 14 16 15 15 14 12 16 13 14 14 15 16 17 19 20 20 21 21 21 21 21 21 21 21 21 21 21 20 20 20 20 19 19 18 18 18 18 18
14 15 15 15 15 15 14 15 15 15 13 13 13 11 12 15 14 15 14 18 18 18 18 20 20 21 22 21 20 20 20 20 21 21 20 19 19 19 18 18 17 18 18 18
15 16 15 15 15 15 15 14 13 11 10 10 13 11 13 15 14 15 16 17 18 19 20 20 20 20 20 19 19 20 19 19 19 20 20 20 19 18 19 17 16 17 17 18
14 13 13 14 13 13 11 10 8 9 9 12 13 11 14 14 15 15 15 15 17 18 20 20 20 19 18 18 19 19 18 18 18 18 18 18 18 17 17 17 17 17 16 16
11 12 13 13 13 12 10 10 7 9 9 10 10 10 12 14 15 16 14 14 14 15 17 19 20 19 17 18 18 18 18 18 18 17 17 17 16 15 15 16 16 16 16 16
10 11 13 12 12 11 10 8 10 7 8 7 8 10 13 14 14 14 13 14 13 14 13 13 13 17 17 17 18 18 17 17 17 17 16 16 16 15 15 15 15 15 16 16
11 9 11 13 12 11 9 9 8 8 8 8 9 9 10 12 13 12 12 12 14 15 15 15 14 15 16 17 17 17 17 17 17 17 16 16 15 15 15 14 15 15 15 15
10 9 10 10 11 9 9 9 8 7 7 7 7 9 10 10 10 12 11 15 13 14 14 15 15 15 15 15 16 16 17 17 17 16 16 15 15 15 15 14 14 14 15 15
8 6 7 9 10 10 10 10 8 7 8 8 7 7 9 9 11 10 11 15 15 15 13 13 13 14 14 15 15 15 16 17 16 16 16 16 15 15 15 15 14 14 14 14
7 6 6 7 8 9 10 8 7 6 6 6 6 7 11 11 10 10 9 11 14 15 15 14 13 14 15 14 14 15 16 16 16 16 16 16 15 15 15 15 15 15 14 14
10 5 7 5 7 6 7 8 9 8 6 7 8 9 11 9 9 8 9 10 11 12 13 14 14 14 14 15 14 14 14 15 15 16 16 15 15 15 15 15 14 15 14 14
7 7 6 7 8 8 8 9 9 7 8 7 9 9 9 8 8 8 9 9 10 10 11 12 12 13 13 13 14 14 14 14 14 15 15 15 14 14 14 14 14 14 14 14
5 6 8 7 9 9 9 9 8 10 10 9 9 9 8 9 9 9 9 8 8 9 10 10 11 11 11 12 11 12 12 12 12 13 13 14 14 13 13 13 13 14 14 13
6 5 5 6 8 7 7 7 7 7 8 7 7 8 7 7 7 7 7 7 7 8 10 9 9 9 9 9 10 10 10 10 11 11 11 12 12 13 13 13 13 13 13 12
5 5 4 4 5 7 8 8 7 8 8 7 7 6 7 7 6 6 6 6 7 8 8 8 9 8 8 8 9 8 9 9 9 10 10 11 11 12 12 12 12 12 11 11
5 5 6 4 3 6 7 8 9 8 7 6 6 6 5 5 5 6 7 7 7 6 6 6 6 6 7 7 8 7 6 6 7 8 10 9 10 11 11 11 11 11 10 10
6 7 6 4 5 3 7 8 8 7 6 6 5 4 4 4 4 5 6 5 5 5 5 5 5 5 4 5 5 5 5 4 5 5 6 7 8 9 10 10 10 10 10 10
5 4 4 5 5 5 7 7 8 6 6 4 4 4 4 4 4 4 4 5 4 4 4 4 3 2 3 3 3 3 3 3 4 4 4 5 6 7 9 9 9 9 9 8
5 5 5 6 4 5 6 6 6 5 4 4 3 3 4 4 3 3 4 3 3 2 2 1 1 1 1 2 2 2 2 2 3 3 3 4 5 6 7 8 8 8 8 8
5 5 3 4 3 5 5 5 5 4 3 3 3 3 3 3 4 3 3 2 1 1 1 0 0 -0 -0 0 1 1 1 1 3 3 3 3 4 5 6 6 6 7 7 7
7 5 2 4 6 5 5 5 4 3 3 3 3 3 3 3 3 2 1 1 0 -0 -0 -0 -1 -1 -1 -1 -1 -0 -0 1 2 2 3 3 3 4 5 5 5 5 6 6
4 4 3 3 3 4 4 4 3 3 3 3 3 3 3 2 2 1 0 -0 -0 -1 -1 -1 -1 -1 -1 -0 -1 -1 -1 0 1 2 3 3 3 4 5 5 5 5 5 6
4 3 0 1 2 1 2 2 3 2 2 2 2 3 3 2 1 -0 -0 -1 -1 -1 -1 -1 -0 0 1 2 0 -1 -1 -0 1 2 2 3 3 3 4 4 5 5 5 6
Height
1478 1484 1488 1483 1483 1480 1483 1485 1484 1472 1464 1468 1464 1457 1450 1448 1446 1440 1434 1435 1436 1437 1438 1438 1441 1445 1448 1452 1453 1455 1457 1460 1464 1466 1468 1471 1474 1479 1486 1493 1491 1493 1499 1496
1483 1485 1475 1475 1477 1479 1480 1482 1479 1466 1461 1465 1461 1457 1445 1443 1441 1437 1432 1431 1432 1433 1433 1434 1437 1440 1443 1445 1449 1450 1452 1456 1460 1462 1464 1468 1470 1474 1483 1486 1486 1489 1494 1491
1483 1472 1468 1472 1473 1476 1475 1477 1472 1469 1458 1456 1455 1458 1447 1440 1437 1436 1433 1432 1433 1429 1429 1430 1432 1433 1438 1441 1444 1447 1451 1453 1455 1457 1458 1462 1466 1472 1476 1478 1483 1485 1488 1486
1476 1464 1468 1469 1472 1469 1474 1463 1463 1461 1464 1474 1452 1466 1448 1440 1438 1435 1431 1428 1428 1429 1429 1429 1429 1430 1433 1436 1440 1443 1446 1450 1451 1454 1456 1458 1462 1465 1469 1471 1474 1477 1479 1481
1467 1463 1465 1468 1465 1463 1469 1461 1461 1458 1463 1464 1460 1470 1448 1436 1436 1430 1426 1424 1422 1422 1424 1425 1427 1427 1428 1431 1433 1438 1442 1445 1448 1449 1453 1456 1459 1460 1461 1464 1466 1469 1472 1476
1460 1460 1461 1462 1461 1461 1461 1461 1462 1465 1469 1477 1452 1463 1446 1432 1432 1424 1420 1419 1417 1414 1412 1412 1416 1419 1422 1426 1429 1432 1436 1439 1442 1446 1449 1451 1452 1455 1458 1459 1461 1464 1467 1468
1462 1461 1459 1459 1462 1461 1466 1472 1488 1480 1477 1458 1448 1456 1433 1423 1421 1420 1419 1417 1410 1408 1406 1403 1404 1407 1414 1420 1423 1428 1433 1437 1441 1443 1443 1444 1446 1448 1450 1454 1455 1459 1461 1464
1471 1472 1459 1458 1460 1467 1469 1474 1488 1473 1472 1459 1454 1452 1433 1419 1416 1415 1418 1413 1407 1398 1394 1395 1396 1398 1407 1414 1418 1424 1430 1434 1437 1438 1439 1440 1441 1443 1446 1448 1450 1452 1454 1458
1473 1473 1459 1459 1460 1463 1468 1475 1466 1476 1469 1472 1459 1441 1426 1418 1415 1414 1413 1413 1409 1401 1397 1397 1398 1395 1405 1411 1416 1421 1425 1429 1432 1433 1435 1437 1439 1441 1442 1444 1444 1446 1449 1453
1465 1475 1461 1458 1459 1459 1463 1465 1470 1470 1464 1462 1454 1447 1440 1425 1418 1416 1411 1414 1412 1406 1403 1405 1407 1406 1409 1413 1415 1418 1421 1424 1428 1430 1431 1433 1435 1436 1438 1438 1440 1442 1445 1447
1463 1471 1468 1462 1461 1463 1465 1463 1470 1468 1464 1466 1465 1445 1429 1430 1425 1416 1411 1408 1409 1409 1407 1408 1410 1411 1412 1414 1415 1417 1419 1421 1423 1424 1427 1430 1431 1432 1434 1435 1436 1439 1442 1446
1466 1474 1477 1468 1459 1456 1457 1458 1465 1469 1463 1459 1459 1452 1432 1429 1429 1421 1415 1408 1407 1404 1406 1408 1411 1411 1411 1413 1415 1415 1416 1417 1419 1420 1423 1424 1427 1429 1431 1433 1435 1438 1441 1444
1465 1476 1484 1474 1467 1460 1459 1461 1465 1469 1469 1463 1468 1451 1427 1426 1428 1424 1420 1414 1410 1407 1405 1407 1409 1410 1410 1410 1410 1410 1410 1412 1415 1418 1420 1421 1423 1426 1428 1430 1432 1434 1437 1439
1458 1473 1473 1483 1469 1469 1466 1458 1456 1459 1466 1458 1449 1438 1428 1428 1427 1422 1421 1418 1414 1410 1407 1405 1404 1404 1404 1405 1408 1408 1408 1407 1408 1411 1414 1416 1418 1420 1422 1424 1427 1428 1430 1432
1461 1467 1468 1465 1461 1458 1456 1453 1450 1456 1447 1452 1437 1438 1434 1431 1428 1425 1421 1420 1417 1412 1408 1405 1402 1402 1403 1402 1400 1403 1404 1404 1405 1405 1405 1409 1412 1414 1415 1418 1420 1422 1424 1426
1462 1466 1461 1462 1455 1454 1451 1449 1446 1440 1437 1437 1435 1434 1432 1429 1426 1425 1423 1421 1416 1410 1406 1404 1401 1398 1396 1395 1395 1395 1397 1398 1400 1399 1400 1401 1404 1407 1409 1412 1414 1415 1417 1419
1462 1467 1471 1464 1455 1454 1453 1447 1448 1446 1441 1442 1441 1432 1430 1428 1426 1424 1421 1418 1412 1407 1402 1399 1397 1394 1391 1390 1389 1387 1388 1389 1389 1388 1391 1394 1396 1398 1400 1403 1405 1407 1409 1411
1462 1465 1470 1471 1464 1458 1445 1444 1445 1441 1436 1437 1434 1432 1430 1426 1422 1418 1416 1410 1404 1401 1397 1394 1390 1385 1382 1380 1380 1379 1378 1377 1376 1376 1379 1382 1385 1387 1390 1392 1393 1396 1399 1401
1453 1461 1464 1473 1476 1455 1446 1441 1442 1440 1436 1436 1436 1432 1427 1423 1417 1408 1408 1405 1400 1396 1391 1386 1382 1378 1373 1369 1367 1365 1363 1363 1364 1362 1365 1370 1373 1375 1378 1380 1383 1386 1389 1390
1451 1454 1460 1468 1465 1476 1443 1440 1438 1439 1439 1435 1435 1431 1425 1420 1412 1395 1399 1396 1389 1382 1377 1372 1368 1364 1360 1358 1356 1352 1347 1349 1347 1349 1351 1357 1360 1364 1367 1369 1372 1376 1378 1380
1460 1461 1465 1461 1462 1455 1440 1440 1438 1445 1438 1433 1430 1426 1421 1415 1408 1391 1386 1380 1376 1371 1363 1358 1351 1343 1337 1337 1336 1330 1329 1327 1330 1334 1336 1340 1344 1347 1353 1358 1362 1365 1367 1369
1456 1459 1458 1456 1462 1457 1441 1440 1444 1438 1432 1430 1426 1420 1412 1403 1392 1383 1373 1366 1357 1348 1339 1333 1324 1316 1312 1313 1313 1306 1305 1311 1314 1318 1321 1325 1330 1333 1338 1343 1348 1352 1356 1359
1456 1453 1460 1456 1451 1439 1440 1440 1437 1435 1432 1426 1421 1412 1403 1391 1380 1372 1362 1351 1340 1329 1317 1310 1303 1293 1288 1287 1286 1281 1283 1292 1296 1301 1305 1309 1317 1322 1326 1331 1336 1340 1345 1348
1447 1448 1454 1449 1438 1438 1436 1435 1434 1431 1426 1420 1414 1405 1395 1383 1372 1361 1349 1338 1326 1312 1301 1292 1282 1271 1262 1258 1259 1260 1265 1272 1278 1285 1291 1297 1303 1309 1315 1320 1325 1329 1334 1338
1449 1449 1450 1448 1440 1436 1432 1433 1430 1423 1420 1413 1406 1399 1390 1379 1364 1353 1337 1326 1313 1299 1287 1276 1264 1251 1237 1232 1233 1239 1247 1255 1264 1272 1280 1287 1294 1300 1306 1311 1315 1319 1324 1328
1446 1448 1454 1452 1445 1444 1437 1431 1427 1422 1416 1410 1401 1390 1383 1373 1358 1341 1327 1316 1301 1286 1275 1263 1250 1237 1220 1206 1207 1222 1233 1244 1254 1263 1271 1278 1285 1292 1298 1303 1307 1313 1317 1320
Wind_Speed
2 2 6 10 8 8 5 5 12 13 15 4 13 17 11 13 16 21 28 24 30 31 26 28 32 33 31 30 29 28 27 25 30 32 34 33 35 33 34 45 29 30 32 31
4 7 10 5 6 7 8 12 14 12 14 6 9 11 14 6 8 20 25 22 27 28 27 27 31 31 33 31 30 28 28 29 28 29 33 33 32 28 31 33 29 23 40 28
7 9 1 4 7 8 7 6 9 12 7 5 2 7 8 5 7 13 11 8 12 22 24 28 29 30 31 31 30 29 29 30 29 31 33 36 34 33 31 28 31 36 37 33
6 11 10 11 6 3 3 4 7 7 3 7 3 11 10 7 7 5 14 13 16 14 15 23 27 30 32 32 33 31 28 26 27 29 32 35 36 39 35 28 27 36 32 29
11 5 6 6 8 3 7 4 5 4 4 2 3 1 9 4 7 10 10 17 19 23 20 21 26 33 35 35 34 28 24 23 22 22 21 21 25 34 33 30 28 26 28 34
6 0 2 3 2 4 3 3 2 1 3 2 6 7 10 12 8 5 5 15 23 29 33 33 29 31 42 39 35 30 27 25 24 25 23 21 20 19 22 26 27 27 27 27
0 2 2 2 2 2 8 6 4 4 2 11 5 4 17 6 8 6 5 19 26 30 36 40 31 31 44 39 37 33 26 22 18 18 19 20 21 19 20 21 20 18 16 18
2 5 2 2 3 5 1 5 4 6 4 7 5 7 6 5 3 4 12 17 21 23 27 33 32 31 43 40 33 27 21 19 18 18 17 17 15 10 12 14 14 13 12 13
2 4 3 1 3 7 4 5 4 3 1 2 4 7 10 6 1 3 10 21 24 17 12 4 19 38 40 32 27 24 21 16 14 12 10 11 12 13 12 11 10 9 10 9
3 3 4 3 1 5 4 3 2 2 4 4 4 4 8 10 6 4 5 5 11 21 21 13 4 13 27 29 24 21 19 13 11 12 14 12 14 14 11 11 10 9 7 8
3 3 4 3 2 3 3 2 2 1 3 4 1 4 4 4 9 8 7 5 4 10 13 16 17 7 9 18 28 27 20 18 20 19 17 14 12 13 11 10 8 7 7 6
2 4 3 8 7 8 4 3 5 2 3 3 2 5 6 10 16 13 17 20 15 12 10 12 19 17 15 9 17 28 30 30 26 23 23 20 16 16 17 16 15 16 15 15
6 1 3 8 5 5 2 2 2 2 1 4 1 5 1 3 5 14 16 21 15 17 26 28 23 18 18 15 15 17 27 34 31 31 29 25 23 23 23 23 20 19 17 14
9 4 6 6 6 4 6 6 6 5 3 3 8 12 9 5 6 12 20 21 18 16 15 26 33 35 24 23 19 17 16 18 30 38 35 33 31 31 30 27 25 23 21 21
3 5 5 7 9 8 9 12 10 8 14 8 9 10 4 6 5 9 19 24 21 21 22 22 20 21 19 18 20 19 22 21 15 22 35 34 32 30 30 29 29 27 26 27
1 3 1 4 10 7 9 5 9 7 5 9 13 12 4 8 9 12 19 22 24 28 29 29 27 22 21 19 18 20 21 21 21 23 23 24 28 28 29 28 26 27 30 31
3 4 2 4 4 8 3 1 2 4 5 5 5 4 6 9 8 12 20 26 28 32 32 31 23 25 26 26 26 28 29 27 25 25 27 33 34 37 38 36 35 36 35 34
5 4 2 3 5 2 2 4 6 10 12 4 5 6 10 15 24 26 28 32 31 29 29 28 36 42 45 45 44 43 44 45 42 39 37 36 40 40 40 37 36 34 34 36
6 4 1 2 1 6 4 4 4 7 13 4 5 11 17 22 24 25 22 22 27 31 37 41 42 41 43 48 51 51 51 50 49 54 49 40 35 34 39 39 37 36 36 37
5 1 4 2 1 4 4 3 11 5 7 3 7 9 15 23 14 16 24 34 41 43 44 40 41 36 42 50 51 53 55 48 48 49 50 45 49 46 43 44 42 41 41 39
2 2 4 3 3 7 2 6 9 1 4 16 17 21 23 16 20 42 45 44 37 42 39 43 55 62 54 51 53 53 50 53 53 48 45 43 46 49 54 48 45 41 40 41
4 2 2 2 2 6 2 2 1 4 16 21 23 27 32 36 40 42 44 45 51 51 53 55 54 54 53 51 49 53 52 51 49 46 42 37 37 45 42 45 44 44 45 43
2 4 3 6 5 2 1 7 14 13 19 23 28 33 36 40 45 42 47 54 56 56 55 53 52 54 53 49 49 54 52 45 46 44 41 39 44 40 39 40 41 40 39 38
0 2 1 4 2 4 21 3 16 21 25 31 32 36 42 44 38 55 49 53 55 56 53 51 48 50 53 50 47 49 50 44 39 40 38 35 34 35 38 37 37 37 39 34
3 2 1 5 6 18 3 25 32 34 35 35 38 39 38 46 43 50 54 55 54 54 51 50 49 49 53 54 48 43 40 39 36 33 34 34 33 34 35 35 36 35 34 34
3 3 2 4 4 5 20 31 30 31 33 36 38 40 43 37 49 56 55 52 52 52 53 49 49 49 51 44 45 34 31 32 32 34 34 34 32 32 32 30 30 30 30 26
Wind_Direction
1 64 236 235 208 232 238 260 264 279 278 278 274 272 276 275 292 294 299 254 237 240 239 234 231 224 217 215 211 211 215 218 218 220 225 225 220 216 211 230 245 245 237 225
9 253 245 229 234 231 245 259 274 273 261 194 252 260 278 244 260 285 287 256 230 224 227 218 218 210 210 215 216 210 210 213 217 221 227 225 223 226 227 228 217 237 239 225
193 238 284 260 281 275 258 239 270 265 276 258 252 283 284 277 279 281 279 288 270 222 207 201 200 203 210 213 217 215 212 213 215 218 222 228 232 238 235 231 230 235 238 235
233 253 235 260 242 230 265 282 280 267 228 261 154 275 279 273 272 259 274 289 293 276 249 229 218 212 213 218 217 215 212 205 211 220 226 230 230 236 242 247 243 238 238 236
228 198 197 241 253 177 235 303 285 300 262 8 239 202 281 248 271 267 279 295 306 304 282 265 245 234 229 215 209 205 210 213 218 228 231 228 234 239 243 247 246 250 245 244
232 315 114 225 264 226 322 314 292 62 131 244 250 187 271 270 238 232 232 296 306 298 291 285 272 248 225 206 200 201 205 204 210 217 230 247 259 250 244 248 250 247 245 247
356 253 295 198 24 71 49 40 318 292 250 252 169 213 245 283 276 249 278 312 310 287 280 273 258 232 210 195 193 197 198 205 221 233 242 250 255 250 247 247 252 252 250 247
163 313 16 30 129 206 162 167 193 271 248 275 339 242 263 256 328 74 36 14 347 309 276 260 242 226 196 190 188 191 201 214 226 239 245 247 247 243 242 242 244 249 252 253
152 265 293 156 190 145 188 198 161 223 250 297 242 300 293 293 235 8 48 32 31 32 27 220 200 192 183 183 187 198 204 213 236 246 248 254 254 254 259 252 241 243 251 259
190 270 254 297 150 237 173 142 245 250 225 210 264 254 247 326 315 318 360 46 20 37 46 47 49 169 182 196 202 207 204 217 231 228 232 243 251 251 257 251 247 253 260 272
130 128 285 355 203 208 325 268 234 263 236 229 284 255 210 289 297 311 286 281 24 12 21 33 32 16 275 230 208 206 214 230 230 230 229 226 237 226 232 232 222 224 239 261
44 132 261 251 290 275 200 221 161 250 292 273 286 273 40 11 322 322 311 313 292 284 308 315 329 332 357 297 256 231 221 229 235 235 229 226 231 219 223 233 237 242 250 260
180 128 340 336 351 353 13 180 154 85 337 236 204 269 8 6 315 342 348 346 289 259 262 280 295 307 299 322 317 290 259 243 237 233 236 229 227 225 233 238 242 248 254 256
136 142 173 205 226 203 282 261 243 172 214 241 230 273 301 328 331 333 344 349 331 299 275 271 269 284 288 279 290 288 267 262 251 235 235 238 237 238 241 243 242 245 252 262
117 200 196 239 250 250 265 277 286 217 237 227 262 271 310 307 305 316 330 336 334 328 321 313 296 279 284 275 260 266 261 255 250 246 237 246 240 231 229 232 241 248 255 265
34 250 225 270 264 267 283 299 309 19 324 250 257 274 225 298 313 313 319 324 316 312 307 301 296 287 280 277 270 257 256 257 265 264 259 242 241 241 242 245 250 256 262 264
178 153 113 269 310 306 302 104 289 270 248 260 254 253 328 318 306 305 302 302 294 295 292 294 281 285 284 282 278 279 282 278 267 263 265 257 251 252 253 257 259 261 262 267
151 133 151 275 347 258 237 187 255 292 297 268 302 321 316 305 302 295 288 281 287 288 284 275 287 290 292 291 287 285 283 281 276 273 267 265 256 253 252 257 260 260 265 272
182 140 153 202 211 282 231 232 281 311 297 167 314 315 302 301 299 292 298 294 294 288 280 279 278 284 286 282 281 284 282 279 275 271 270 259 257 257 251 249 250 258 265 272
102 323 135 143 215 253 234 244 323 324 279 105 317 295 307 320 303 298 302 295 290 287 282 277 274 274 279 271 269 271 270 268 262 263 264 260 253 252 250 250 256 261 265 268
335 319 169 169 230 280 225 305 324 237 258 326 326 309 303 297 285 292 298 296 299 298 288 282 281 284 275 267 263 255 257 259 258 258 261 256 244 246 248 250 251 253 258 270
177 159 208 172 218 274 42 13 146 262 327 320 312 304 299 294 298 295 297 302 302 298 291 287 282 277 271 265 260 254 251 254 251 249 248 241 241 242 240 243 245 252 259 264
163 201 200 181 225 215 189 283 298 318 312 305 306 303 299 300 304 301 306 301 302 300 295 291 287 283 278 269 258 250 253 251 241 242 241 243 239 240 240 241 245 245 249 262
15 53 190 17 310 324 313 311 335 330 318 320 317 314 313 305 314 310 306 306 305 304 302 299 292 283 278 273 259 250 252 242 232 228 231 232 235 233 234 234 236 246 257 246
217 5 312 265 311 334 92 323 327 326 330 324 322 314 314 317 313 315 310 310 309 307 309 308 300 292 285 287 266 256 245 233 228 223 221 224 222 229 234 239 243 241 238 242
176 181 147 247 342 277 294 316 330 323 319 316 317 318 320 320 319 318 315 314 313 315 320 316 312 309 306 290 259 245 229 220 218 215 216 216 224 226 230 231 231 232 238 241